Simultaneous Nadir Overpasses (SNOs) Predictions

Prediction of SNOs over PacNW region [( 10.00, 139.50) to ( 22.70, 165.60)] between AQUA and NPP Satellites:

Table of predicted SNOs over PacNW region for the next 30.0 days since TLE Epoch: 8/21/2021
Index Date (AQUA) Time (AQUA) AQUA Lat,Lon Date (NPP) Time (NPP) NPP Lat,Lon Distance(km) Time Diff (sec)
1 08/23/2021 15:09:47 22.59, 159.84 08/23/2021 15:11:38 23.21, 157.13 286.48 111
2 08/26/2021 03:31:37 22.68, 147.52 08/26/2021 03:28:07 23.35, 145.47 222.98 210
3 08/31/2021 15:59:11 22.61, 147.50 08/31/2021 16:02:26 23.31, 144.46 321.07 195
4 09/08/2021 15:09:41 22.58, 159.87 09/08/2021 15:11:47 23.17, 157.10 291.11 126
5 09/11/2021 03:31:30 22.70, 147.55 09/11/2021 03:28:00 22.48, 145.67 194.71 210
6 09/16/2021 15:59:02 22.61, 147.54 09/16/2021 16:02:31 23.42, 144.47 326.51 209
